STARLINK-1286, 45417

Orbit data source: Space-Track

STARLINK-1286, 45417 is a payload satellite owned by SpaceX/Seattle (US) in LEO that was launched on Wed, 18 Mar 2020 UTC via an FALCON 9 launch vehicle from the Air Force Eastern Test Range (AFETR). Payload-class satellites include a variety of spacecraft equipped with specific instruments for various scientific and technological missions. These include communications satellites like Starlink; space stations such as the ISS; scientific satellites like the Hubble; Earth observation satellites from companies like Planet Labs, Umbra, and HawkEye 360; GPS; miniature CubeSats for education and research; and military/defense satellites.

Loading next visibility...
Identifier
45417, 2020-019BK
Orbit
LEO
Country
Flag of USUS
Related business
Manufacturer
SpaceX/Seattle
Mission
Partially operational Commercial Communications
Bus & Motor
STARLINK, Unknown motor
Mass
260 kg wet, ~248 kg dry
Launch date (UTC)
2020-03-18 (6 years ago)
Launch vehicle
FALCON 9
Launch site
Air Force Eastern Test Range (AFETR)
Object type
Payload
Rocket body
Debris
Shape & HBR
Box + 1 Pan, 10.1 m
Radar Cross Section
13.562 m², Large (>1 m²)

Expand to show TLE details & history
Last TLE update: 10 hours ago

TLE from 10 hours ago
0 STARLINK-1286
1 45417U 20019BK  26048.68280536  .00028266  00000-0  51472-3 0  9997
2 45417  53.0482 226.7330 0001929  83.2774 276.8453 15.49290656327127
Epoch: 2026-02-17T16:23Z
TLE epoch observation values (Epoch: 2026-02-17T16:23:14.383Z)
Latitude
-0.00001°
Longitude
-166.73622°
Altitude
419.539 km
Speed
7.661 km/s
True Right ascension
15h 06m 55s
True Declination
0° 00' 00"
Sunlit
Object was in daylight at epoch
Visualization orbit readout
Latitude
Unknown
Longitude
Unknown
Altitude
Unknown
Speed
Unknown
Apparent Right ascension
Unknown
Apparent Declination
Unknown
Sunlit
N/A
Visualization observer readout
Local Sidereal Time
05:32:21
Azimuth
Unknown
Elevation
Unknown
Doppler factor
Unknown
Orbital elements
Apogee altitude
420.388 km
Perigee altitude
417.765 km
Semi-major axis
6,797.214 km
Eccentricity
0.00019
Inclination
53.0482°
RAAN
226.733°
Arg. of periapsis
83.2774°
True anomaly
276.82335°
Mean anomaly
276.8453°
Eccentric anomaly
276.83433°
Mean motion
3.87299 °/min
Orbital period
92.95 mins
BSTAR
0.00051472
Loading maneuver chart data...
Computing Atmospheric mass density...
Loading historical data...
Loading historical data...
Loading historical data...
Loading historical data...
Loading historical data...
Loading historical data...
Loading historical data...

Documentation

Showing up to 5 results
|